Weather History for Logan, UT

Change the Weather History Date:

Wednesday, March 26, 2014

  Actual Average Record
Temperature  
Mean Temperature 41 °F -  
Max Temperature 51 °F 53 °F 71 °F (1960)
Min Temperature 34 °F 28 °F 18 °F (1969)
Degree Days  
Heating Degree Days 24    
Moisture  
Dew Point 32 °F    
Average Humidity 75    
Maximum Humidity 93    
Minimum Humidity 33    
Precipitation  
Precipitation 0.29 in - - ()
Sea Level Pressure  
Sea Level Pressure 29.57 in    
Wind  
Wind Speed 8 mph (NNW)    
Max Wind Speed 24 mph    
Max Gust Speed 33 mph    
Visibility 9 miles    
Events Rain    
Averages and records for this station are not official NWS values.
T = Trace of Precipitation, MM = Missing Value Source: NWS Daily Summary

Daily Weather History Graph

Daily Weather History Graph

Search for Another Location

Airport:

Trip Planner

Search our weather history database for the weather conditions in past years. The results will help you decide how hot, cold, wet, or windy it might be!

Date:

Astronomy

Mar. 26, 2014 Rise Set
Actual Time 7:20 AM MDT 7:46 PM MDT
Civil Twilight 6:52 AM MDT 8:14 PM MDT
Nautical Twilight 6:19 AM MDT 8:47 PM MDT
Astronomical Twilight 5:46 AM MDT 9:20 PM MDT
Moon 4:35 AM MDT (3/26) 3:25 PM MDT (3/26)
Length of Visible Light 13h 21m
Length of Day
12h 26m
Waning Crescent, 21% of the Moon is Illuminated
Mar 26
Waning Crescent
Mar 30
New
Apr 7
First Quarter
Apr 15
Full
Apr 22
Last Quarter

Hourly Weather History & Observations

Time (MDT) Temp. Windchill Dew Point Humidity Pressure Visibility Wind Dir Wind Speed Gust Speed Precip Events Conditions
12:51 AM 42.1 °F 37.1 °F 25.0 °F 51% 29.51 in 10.0 mi WNW 8.1 mph 21.9 mph N/A   Clear
1:51 AM 46.9 °F - 23.0 °F 39% 29.45 in 10.0 mi Calm Calm - N/A   Partly Cloudy
2:51 AM 44.1 °F 42.5 °F 25.0 °F 47% 29.47 in 10.0 mi NNW 3.5 mph - N/A   Partly Cloudy
3:51 AM 48.9 °F - 21.0 °F 33% 29.44 in 10.0 mi North 24.2 mph 33.4 mph N/A   Scattered Clouds
4:51 AM 46.9 °F - 23.0 °F 39% 29.45 in 10.0 mi North 11.5 mph - N/A   Partly Cloudy
5:02 AM 46.9 °F - 23.0 °F 39% 29.55 in 10.0 mi North 10.4 mph - N/A   Scattered Clouds
5:51 AM 46.9 °F - 24.1 °F 41% 29.47 in 10.0 mi North 17.3 mph 29.9 mph N/A   Mostly Cloudy
6:51 AM 42.1 °F 35.7 °F 27.0 °F 55% 29.49 in 10.0 mi NW 11.5 mph - N/A   Partly Cloudy
6:56 AM 42.1 °F 35.2 °F 27.0 °F 55% 29.57 in 10.0 mi NW 12.7 mph - N/A   Clear
7:51 AM 39.9 °F 33.9 °F 28.0 °F 63% 29.54 in 10.0 mi NNW 9.2 mph - N/A   Clear
8:51 AM 44.1 °F 36.8 °F 32.0 °F 63% 29.55 in 10.0 mi NNW 16.1 mph - N/A   Overcast
9:42 AM 39.9 °F 33.9 °F 36.0 °F 86% 29.62 in 3.0 mi North 9.2 mph - 0.02 in Rain Rain
9:51 AM 39.9 °F 33.4 °F 36.0 °F 86% 29.59 in 5.0 mi NNE 10.4 mph - 0.02 in Rain Light Rain
10:51 AM 39.9 °F - 36.0 °F 86% 29.60 in 3.0 mi Calm Calm - 0.06 in Rain Rain
11:27 AM 39.9 °F 37.8 °F 36.0 °F 86% 29.61 in 8.0 mi SE 3.5 mph - 0.02 in Rain Light Rain
11:32 AM 39.9 °F - 36.0 °F 86% 29.61 in 8.0 mi Calm Calm - 0.03 in Rain Light Rain
11:51 AM 41.0 °F 38.0 °F 36.0 °F 82% 29.58 in 10.0 mi SW 4.6 mph - 0.03 in Rain Light Rain
11:58 AM 41.0 °F 38.0 °F 36.0 °F 82% 29.61 in 10.0 mi SW 4.6 mph - 0.00 in Rain Light Rain
12:51 PM 42.1 °F 37.7 °F 37.9 °F 85% 29.58 in 10.0 mi SSW 6.9 mph - 0.01 in Rain Light Rain
1:13 PM 43.0 °F 38.8 °F 37.9 °F 82% 29.59 in 10.0 mi SSW 6.9 mph - 0.00 in   Overcast
1:20 PM 43.0 °F 38.2 °F 37.9 °F 82% 29.59 in 10.0 mi SSW 8.1 mph - 0.00 in   Overcast
1:42 PM 43.0 °F 39.5 °F 37.0 °F 80% 29.59 in 10.0 mi South 5.8 mph - 0.00 in   Mostly Cloudy
1:51 PM 43.0 °F 39.5 °F 37.0 °F 80% 29.55 in 10.0 mi Variable 5.8 mph - 0.00 in   Mostly Cloudy
2:51 PM 46.0 °F - 36.0 °F 68% 29.52 in 10.0 mi Calm Calm - N/A   Partly Cloudy
3:51 PM 46.0 °F - 33.1 °F 61% 29.50 in 10.0 mi Calm Calm - 0.00 in   Overcast
4:36 PM 37.9 °F 29.2 °F 35.1 °F 89% 29.59 in 3.0 mi NNW 15.0 mph - 0.03 in Rain Rain
4:40 PM 37.0 °F 27.4 °F 35.1 °F 93% 29.59 in 2.5 mi North 17.3 mph - 0.05 in Rain Heavy Rain
4:48 PM 37.4 °F 28.9 °F 35.6 °F 93% 29.60 in 6.0 mi North 13.8 mph - 0.06 in Rain Light Rain
4:51 PM 37.0 °F 29.8 °F 35.1 °F 93% 29.57 in 9.0 mi North 10.4 mph - 0.06 in Rain Light Rain
5:14 PM 36.0 °F 30.3 °F 34.0 °F 93% 29.60 in 5.0 mi NNE 6.9 mph - 0.07 in Rain Rain
5:31 PM 36.0 °F 33.3 °F 34.0 °F 93% 29.60 in 5.0 mi East 3.5 mph - 0.10 in Rain Rain
5:51 PM 37.0 °F - 34.0 °F 89% 29.57 in 9.0 mi Calm Calm - 0.11 in Rain Light Rain
5:56 PM 37.0 °F 34.5 °F 35.1 °F 93% 29.60 in 10.0 mi SE 3.5 mph - 0.00 in Rain Light Rain
6:51 PM 39.9 °F 35.8 °F 35.1 °F 83% 29.58 in 10.0 mi South 5.8 mph - 0.00 in   Overcast
7:51 PM 37.9 °F 31.5 °F 35.1 °F 89% 29.59 in 10.0 mi SSW 9.2 mph - N/A   Scattered Clouds
8:51 PM 37.0 °F 34.5 °F 34.0 °F 89% 29.59 in 10.0 mi SE 3.5 mph - N/A   Clear
9:51 PM 35.1 °F 31.0 °F 33.1 °F 92% 29.63 in 10.0 mi North 4.6 mph - N/A   Clear
10:51 PM 34.0 °F 28.8 °F 32.0 °F 92% 29.65 in 10.0 mi NW 5.8 mph - N/A   Scattered Clouds
11:51 PM 35.1 °F - 33.1 °F 92% 29.66 in 10.0 mi Calm Calm - N/A   Scattered Clouds